Temp
73 77 81 83 83 83 83 83 83 83 83 82 82 82 83 83 83 83 82 82 83 83 83 83 83 83 83 83 83 83 83 83 83 83 83 83 83 82 82 83 82 81 82
76 79 82 83 83 83 83 83 83 83 83 82 83 83 83 83 83 83 83 83 83 83 83 83 83 83 83 81 82 83 83 83 83 83 83 83 83 82 83 82 82 81 82
77 79 81 81 83 83 83 83 83 83 83 82 82 83 82 82 83 83 83 83 83 83 83 83 83 81 82 79 81 80 82 82 83 83 83 78 79 83 83 82 83 82 82
77 76 79 82 83 83 83 83 83 83 83 83 83 83 83 83 83 83 83 83 83 83 83 83 83 83 83 83 83 83 82 82 82 82 78 79 80 83 83 83 82 82 82
75 76 78 82 83 83 83 82 82 83 83 83 83 83 83 83 83 83 83 83 83 83 83 83 84 84 84 83 83 83 82 83 82 82 77 76 75 83 83 83 82 82 82
74 75 81 83 83 83 83 82 82 82 83 82 83 83 83 83 83 83 83 83 83 83 83 84 84 85 83 83 83 83 83 83 83 77 76 76 76 80 83 83 83 82 82
74 75 79 83 83 82 82 82 82 82 83 82 83 83 83 82 82 83 83 83 83 82 81 81 82 82 83 83 83 83 83 85 79 74 74 74 74 80 83 83 83 82 82
75 76 79 82 83 82 82 82 82 82 83 83 83 82 82 82 83 83 83 83 83 82 81 80 81 81 82 81 81 82 83 84 82 74 74 73 76 80 83 83 82 82 82
77 76 76 77 81 83 83 83 83 83 83 82 82 82 83 83 83 81 82 83 82 83 81 80 81 82 82 81 83 82 82 82 75 73 74 72 76 79 83 83 82 82 82
76 75 74 74 75 76 77 83 82 83 83 83 83 82 80 81 81 81 79 82 82 82 79 80 80 82 81 81 81 82 82 82 74 73 72 71 77 79 82 83 82 82 81
75 73 73 73 73 74 74 78 81 83 83 83 82 81 80 72 73 76 80 82 82 81 80 81 81 82 81 80 81 82 82 74 73 72 70 75 78 79 81 82 82 81 81
72 72 72 71 71 72 79 74 74 76 76 74 74 73 73 72 70 76 78 80 82 80 80 81 80 79 79 73 73 77 73 74 72 72 71 77 79 80 81 82 82 81 81
74 74 72 71 71 71 74 72 72 73 73 73 73 73 72 72 71 72 70 70 71 75 71 73 72 73 72 72 71 72 73 73 72 73 74 76 79 80 81 81 81 81 81
74 75 74 73 72 72 73 73 73 73 74 72 73 73 71 71 71 70 71 69 69 69 69 70 70 71 71 72 71 72 73 73 72 73 72 77 79 79 77 79 82 81 81
75 75 74 74 72 74 73 73 73 73 73 74 73 72 72 71 71 71 70 68 68 68 68 68 69 70 71 72 74 74 72 73 74 74 72 78 79 77 80 79 80 80 81
77 76 75 74 73 74 74 73 73 74 74 74 75 72 70 71 71 70 69 69 70 70 69 68 69 69 71 72 71 74 74 73 73 72 73 72 79 78 79 79 80 80 81
78 77 75 74 75 74 74 74 73 74 77 75 75 74 73 73 72 71 70 70 70 73 71 70 70 70 70 71 71 74 72 73 73 73 73 73 74 81 80 79 79 80 80
78 75 76 81 76 75 74 74 75 76 76 76 77 75 78 75 74 71 72 73 75 73 72 71 71 71 70 69 70 73 72 71 72 71 72 70 69 72 74 75 79 80 79
78 76 75 75 74 75 75 74 74 75 75 76 77 77 79 79 78 75 75 74 75 72 70 69 70 71 69 72 74 73 70 70 70 73 71 71 69 68 69 75 78 79 78
78 78 76 74 73 73 73 73 73 74 75 75 76 77 79 79 80 77 76 75 74 71 69 68 67 68 70 71 74 72 70 70 69 69 69 70 68 69 70 69 69 72 77
77 76 74 72 70 70 70 70 71 72 72 74 76 78 79 79 80 78 76 75 75 73 72 69 68 68 71 71 69 69 68 69 68 70 69 67 67 69 69 68 67 67 69
76 76 73 73 71 71 70 70 72 72 74 74 76 78 79 79 79 78 76 75 74 73 72 71 70 70 70 71 68 66 64 67 70 71 69 68 67 70 69 68 66 65 64
76 74 74 73 73 72 72 70 71 73 74 75 74 75 78 79 79 78 78 76 75 74 73 73 71 69 69 70 70 67 64 64 66 69 67 66 67 66 66 65 65 65 64
77 77 76 75 73 72 72 70 72 72 71 72 72 73 76 78 78 79 78 77 75 74 73 73 75 72 70 69 69 70 68 67 63 62 64 63 65 66 65 65 65 65 63
80 78 76 75 74 73 71 71 72 70 71 72 73 74 75 75 77 78 77 76 76 74 74 74 74 72 71 69 68 67 67 66 64 61 58 59 59 62 65 63 61 61 62
81 79 76 74 74 72 71 71 72 72 71 71 72 73 74 73 76 77 77 74 75 75 75 74 73 72 70 70 68 66 65 63 62 60 58 56 54 57 60 60 62 61 59
MSLP
1013.11 1012.95 1012.73 1013.01 1013.23 1013.40 1013.53 1013.58 1013.61 1013.68 1013.80 1013.83 1013.92 1013.98 1013.91 1013.95 1014.04 1014.08 1014.09 1014.08 1014.06 1014.20 1014.31 1014.30 1014.30 1014.20 1013.98 1014.07 1014.22 1014.32 1014.34 1014.40 1014.39 1014.29 1014.32 1014.40 1014.63 1014.80 1014.82 1015.02 1015.02 1015.07 1015.09
1012.85 1012.99 1013.05 1013.14 1013.37 1013.64 1013.79 1013.78 1013.82 1013.88 1014.00 1014.08 1014.14 1014.23 1014.17 1014.17 1014.18 1014.18 1014.25 1014.34 1014.51 1014.61 1014.69 1014.61 1014.46 1014.24 1014.28 1014.30 1014.46 1014.52 1014.59 1014.67 1014.55 1014.43 1014.43 1014.50 1014.73 1014.94 1014.95 1015.04 1015.16 1015.18 1015.04
1013.07 1012.99 1013.19 1013.41 1013.63 1013.84 1013.93 1013.99 1014.04 1014.16 1014.20 1014.30 1014.25 1014.34 1014.44 1014.38 1014.48 1014.54 1014.75 1014.83 1014.83 1014.79 1014.81 1014.80 1014.67 1014.50 1014.67 1014.64 1014.63 1014.85 1014.78 1014.72 1014.57 1014.48 1014.39 1014.58 1014.70 1014.74 1014.90 1014.98 1015.07 1015.14 1015.12
1012.96 1013.16 1013.53 1013.63 1013.78 1013.95 1014.12 1014.28 1014.42 1014.40 1014.39 1014.49 1014.56 1014.61 1014.54 1014.48 1014.55 1014.70 1014.80 1014.78 1014.75 1014.77 1014.80 1014.83 1014.80 1014.74 1014.64 1014.64 1014.69 1014.72 1014.74 1014.69 1014.58 1014.64 1014.62 1014.48 1014.48 1014.56 1014.72 1014.84 1015.01 1015.07 1015.25
1013.33 1013.39 1013.67 1013.88 1013.99 1014.22 1014.35 1014.47 1014.57 1014.71 1014.65 1014.74 1014.79 1014.71 1014.59 1014.64 1014.68 1014.85 1014.94 1014.93 1014.88 1014.81 1014.76 1014.63 1014.58 1014.44 1014.31 1014.32 1014.21 1014.33 1014.32 1014.31 1014.33 1014.25 1014.31 1014.34 1014.46 1014.29 1014.48 1014.62 1014.83 1015.09 1015.35
1013.60 1013.65 1013.76 1013.94 1014.20 1014.40 1014.49 1014.64 1014.72 1014.74 1014.68 1014.76 1014.87 1014.88 1014.91 1015.00 1015.04 1015.10 1015.14 1014.95 1014.68 1014.43 1014.45 1014.32 1014.12 1013.91 1014.08 1013.88 1013.78 1013.68 1013.72 1013.80 1013.89 1013.95 1014.01 1014.07 1014.22 1014.24 1014.22 1014.50 1014.72 1014.97 1015.12
1013.78 1013.90 1014.02 1014.17 1014.38 1014.54 1014.69 1014.79 1014.66 1014.75 1014.83 1014.85 1014.93 1015.12 1015.15 1015.05 1014.96 1014.90 1014.86 1014.63 1014.12 1013.97 1014.25 1014.26 1013.96 1013.89 1013.94 1013.82 1013.48 1013.10 1013.13 1013.18 1013.51 1013.84 1014.07 1014.15 1013.97 1013.74 1013.80 1014.05 1014.31 1014.56 1014.74
1013.95 1014.09 1014.28 1014.46 1014.56 1014.70 1014.90 1014.79 1014.90 1014.98 1014.97 1014.99 1015.20 1014.91 1014.81 1014.96 1015.04 1014.82 1014.45 1014.31 1014.21 1014.24 1014.42 1014.30 1013.97 1013.86 1013.80 1013.46 1013.05 1012.65 1012.72 1012.81 1012.98 1013.40 1013.74 1013.90 1013.87 1013.50 1013.36 1013.56 1013.86 1014.08 1014.23
1014.03 1014.34 1014.58 1014.75 1014.71 1014.80 1014.92 1014.92 1015.08 1015.00 1014.99 1015.40 1015.23 1015.00 1014.83 1014.78 1014.82 1014.70 1014.46 1014.12 1013.78 1014.28 1013.99 1013.99 1013.72 1013.81 1013.43 1012.98 1012.54 1012.78 1012.80 1012.70 1013.04 1013.30 1013.50 1013.50 1013.64 1013.60 1013.36 1013.43 1013.58 1013.75 1013.98
1014.36 1014.51 1014.78 1014.93 1015.00 1015.07 1015.09 1015.04 1015.24 1015.12 1015.37 1015.36 1015.14 1014.84 1014.89 1015.30 1015.06 1014.90 1014.58 1014.32 1014.09 1014.27 1014.31 1014.26 1014.10 1013.86 1013.44 1012.63 1012.65 1012.81 1013.01 1012.96 1013.19 1013.37 1013.54 1013.70 1013.96 1013.99 1013.76 1013.70 1013.88 1014.11 1014.18
1014.66 1014.90 1014.95 1015.11 1015.16 1015.31 1015.32 1015.32 1015.25 1015.20 1015.58 1015.32 1015.15 1014.84 1015.32 1015.52 1015.01 1014.86 1014.50 1014.54 1014.38 1014.63 1014.47 1014.58 1014.47 1013.93 1013.54 1013.15 1012.63 1012.43 1012.51 1012.70 1012.90 1013.14 1013.39 1013.52 1013.82 1013.86 1013.94 1014.15 1014.22 1014.13 1014.29
1014.74 1014.99 1015.14 1015.26 1015.32 1015.43 1015.31 1015.50 1015.47 1015.58 1015.72 1015.57 1015.18 1014.96 1015.38 1015.29 1015.21 1015.08 1015.00 1014.83 1014.63 1014.59 1014.65 1014.60 1014.44 1014.17 1013.96 1013.76 1013.30 1012.84 1012.94 1012.66 1012.65 1012.81 1012.93 1013.33 1013.53 1013.10 1013.28 1013.38 1013.80 1014.11 1014.07
1014.52 1014.88 1015.06 1015.30 1015.36 1015.51 1015.44 1015.60 1015.74 1015.81 1015.98 1015.92 1015.46 1015.02 1015.10 1015.44 1014.99 1015.20 1015.33 1015.35 1015.10 1015.04 1015.06 1014.83 1014.69 1014.39 1014.47 1014.38 1014.12 1013.65 1012.92 1012.48 1012.62 1012.77 1012.98 1013.05 1013.00 1013.09 1012.92 1013.13 1013.34 1013.64 1013.65
1014.59 1014.82 1014.95 1015.02 1015.19 1015.41 1015.54 1015.53 1015.71 1015.73 1016.03 1016.16 1015.83 1015.48 1015.47 1015.60 1015.35 1015.46 1015.49 1015.70 1015.76 1015.40 1015.37 1014.83 1014.58 1014.56 1014.36 1014.19 1014.07 1013.52 1012.89 1012.51 1012.46 1012.48 1012.83 1012.88 1012.96 1012.94 1012.11 1012.36 1012.68 1013.02 1013.43
1014.43 1014.69 1014.90 1015.12 1015.29 1015.13 1015.36 1015.54 1015.69 1015.70 1015.73 1015.98 1015.91 1015.73 1015.56 1015.56 1015.62 1015.12 1015.44 1016.12 1016.08 1015.76 1015.15 1015.07 1014.95 1014.69 1014.36 1014.00 1013.79 1013.64 1013.11 1012.60 1012.30 1012.40 1012.64 1012.42 1012.78 1012.62 1011.46 1012.12 1012.98 1012.92 1012.96
1014.24 1014.47 1014.66 1015.04 1015.14 1015.06 1015.26 1015.28 1015.44 1015.46 1015.51 1015.90 1015.75 1015.71 1015.81 1015.68 1015.53 1015.53 1015.60 1015.64 1015.52 1015.22 1014.98 1015.15 1015.00 1014.93 1014.55 1014.10 1013.74 1013.32 1012.91 1012.65 1012.52 1012.55 1012.58 1012.42 1012.62 1012.34 1011.92 1012.37 1012.29 1012.37 1012.32
1013.78 1014.12 1014.48 1014.76 1014.85 1015.09 1015.18 1015.08 1015.22 1015.17 1015.26 1015.45 1015.82 1015.74 1015.71 1015.73 1015.63 1015.62 1015.85 1015.74 1015.27 1014.86 1014.96 1014.93 1014.78 1014.70 1014.49 1013.85 1013.59 1013.34 1013.12 1012.82 1012.69 1012.61 1012.56 1012.42 1012.11 1011.91 1012.21 1012.41 1012.53 1012.23 1012.39
1013.49 1013.94 1014.32 1014.63 1014.88 1014.89 1015.09 1015.05 1015.01 1015.02 1015.10 1015.15 1015.26 1015.66 1015.66 1015.57 1015.68 1015.79 1015.83 1015.09 1014.84 1014.84 1015.01 1015.12 1015.04 1014.87 1014.50 1014.30 1013.94 1013.28 1012.89 1012.63 1012.66 1012.53 1012.53 1012.49 1012.90 1012.81 1012.91 1012.80 1012.31 1012.04 1012.11
1012.95 1013.65 1014.16 1014.40 1014.65 1014.66 1014.80 1015.01 1015.13 1015.09 1015.13 1014.87 1014.88 1015.03 1014.84 1015.10 1015.09 1015.24 1014.96 1014.65 1014.63 1014.86 1014.93 1015.05 1015.04 1015.04 1014.93 1013.97 1013.38 1013.38 1013.14 1012.99 1013.03 1012.71 1012.67 1012.86 1013.15 1013.30 1013.02 1012.62 1012.11 1012.10 1012.23
1012.80 1013.42 1013.80 1014.14 1014.49 1014.70 1014.72 1014.90 1015.23 1015.43 1015.08 1014.86 1014.74 1014.68 1014.51 1014.57 1014.57 1014.74 1014.84 1014.74 1014.77 1015.29 1015.35 1015.36 1015.52 1015.15 1014.60 1014.03 1013.57 1013.62 1013.59 1013.45 1013.48 1013.43 1013.58 1013.59 1013.59 1013.41 1013.36 1013.03 1012.83 1012.69 1012.45
1012.90 1013.44 1013.63 1014.10 1014.41 1014.73 1015.03 1015.19 1015.37 1015.46 1015.45 1015.16 1014.76 1014.46 1014.42 1014.48 1014.56 1014.63 1014.87 1014.97 1014.96 1015.32 1015.33 1015.47 1015.34 1014.95 1014.48 1014.03 1013.90 1013.64 1013.79 1013.77 1013.73 1013.72 1014.07 1014.08 1014.01 1013.85 1013.74 1013.69 1013.65 1013.53 1013.36
1012.24 1012.90 1013.48 1013.66 1013.99 1014.28 1014.53 1014.93 1015.03 1015.16 1015.16 1015.11 1014.72 1014.42 1014.38 1014.39 1014.54 1014.65 1014.82 1014.98 1015.05 1015.18 1015.12 1014.99 1014.96 1014.88 1014.59 1014.02 1014.11 1014.23 1014.25 1014.27 1013.94 1013.93 1014.06 1014.36 1014.49 1014.16 1014.32 1014.38 1014.35 1014.21 1014.07
1012.13 1012.58 1013.07 1013.38 1013.55 1013.75 1014.06 1014.63 1015.05 1015.10 1015.06 1014.96 1014.83 1014.56 1014.18 1014.25 1014.39 1014.50 1014.44 1014.59 1014.79 1014.97 1014.96 1014.81 1014.69 1014.87 1014.57 1014.05 1014.09 1014.31 1014.46 1014.55 1014.44 1014.66 1014.86 1014.98 1014.96 1015.06 1015.31 1015.13 1015.08 1014.86 1014.66
1011.38 1011.98 1012.43 1013.02 1013.41 1013.56 1013.88 1014.28 1014.79 1015.10 1015.41 1015.25 1015.07 1014.62 1014.31 1014.18 1014.36 1014.45 1014.34 1014.38 1014.66 1014.78 1014.78 1014.59 1014.46 1014.38 1014.44 1014.41 1014.39 1014.29 1014.28 1014.42 1014.82 1015.36 1015.69 1015.74 1015.65 1015.74 1015.68 1015.50 1015.18 1015.19 1015.16
1010.77 1011.43 1011.93 1012.47 1013.12 1013.40 1013.80 1014.04 1014.43 1014.87 1015.02 1014.98 1014.94 1014.74 1014.42 1014.43 1014.28 1014.12 1014.10 1014.06 1014.30 1014.42 1014.36 1014.35 1014.16 1014.15 1014.16 1014.33 1014.46 1014.53 1014.65 1014.84 1015.02 1015.38 1016.17 1016.52 1016.40 1016.28 1016.00 1015.53 1015.56 1015.57 1015.53
1010.07 1010.86 1011.58 1012.16 1012.62 1013.16 1013.52 1013.88 1014.23 1014.54 1014.95 1015.14 1015.14 1015.00 1014.58 1014.46 1014.18 1014.08 1013.88 1013.79 1013.89 1014.14 1014.12 1014.10 1014.10 1014.16 1014.18 1014.34 1014.61 1014.72 1014.85 1015.32 1015.50 1015.69 1016.44 1016.92 1017.14 1017.15 1016.68 1016.40 1016.29 1016.13 1016.13
Wind_Speed
2 4 10 14 14 12 12 11 12 11 11 11 10 12 11 11 11 10 10 10 10 9 7 7 6 6 6 7 7 7 6 5 6 7 8 9 9 10 11 9 9 6 11
7 5 10 13 13 12 12 12 11 11 9 11 11 11 10 10 10 10 9 9 8 8 6 5 3 3 3 4 4 6 5 4 5 6 7 8 9 10 10 9 10 8 11
8 7 9 11 13 13 12 11 9 10 8 9 11 12 9 9 12 10 9 8 7 6 5 4 3 4 3 3 3 2 3 4 5 6 8 3 3 9 11 11 12 12 12
8 6 7 12 13 13 12 11 10 9 9 10 9 11 8 10 9 9 9 7 6 5 4 4 5 6 6 6 6 5 4 4 7 8 5 4 6 10 10 14 13 13 12
6 6 8 13 13 13 11 10 10 10 9 9 9 8 7 9 8 7 6 6 6 6 5 5 5 6 6 7 8 6 8 8 8 8 6 5 5 8 12 12 12 13 13
6 6 12 13 14 12 12 10 10 9 10 8 8 7 6 7 7 6 7 6 4 2 2 3 3 3 6 7 5 4 7 10 11 6 5 6 6 11 14 14 14 14 13
7 6 6 12 13 12 10 10 10 10 8 8 8 7 6 4 4 4 4 2 5 4 2 4 5 3 5 7 7 8 7 9 3 4 4 5 5 17 17 16 15 15 14
9 5 6 11 12 11 10 9 9 8 7 7 7 7 4 2 2 2 1 2 5 5 6 3 2 2 4 7 10 11 8 6 4 5 3 4 8 12 18 17 16 16 17
7 5 5 5 8 11 10 10 9 8 7 8 5 2 1 1 3 1 4 7 9 5 4 4 4 3 2 7 9 7 4 4 3 1 3 2 7 12 18 17 17 18 18
6 6 5 5 4 5 5 9 8 7 6 7 4 3 6 10 7 5 4 3 9 5 4 6 6 2 5 8 7 10 10 6 1 3 3 3 9 10 16 17 18 18 16
6 5 5 5 5 5 4 4 7 8 7 6 3 9 6 2 5 4 4 4 4 2 3 7 9 9 9 14 14 12 13 2 2 2 2 8 8 8 13 17 18 17 18
7 5 6 5 5 5 3 3 3 2 3 2 3 5 2 3 2 3 3 6 3 10 10 7 8 10 7 4 5 11 3 5 2 4 3 8 10 10 13 15 17 18 19
8 6 7 6 6 5 3 3 1 1 2 2 4 5 3 3 4 3 2 3 3 5 4 4 5 5 2 3 4 6 8 5 3 3 3 5 9 11 15 15 16 18 19
8 8 6 6 6 5 3 3 3 3 3 3 4 6 2 2 4 1 2 1 4 4 6 5 3 6 7 5 5 8 9 6 3 3 5 8 5 6 10 19 15 15 13
10 8 7 6 6 5 5 3 3 4 3 4 4 5 4 3 4 3 2 3 4 5 4 4 4 5 7 7 7 6 7 7 7 4 3 12 5 6 16 18 17 18 17
11 9 7 7 6 6 5 6 5 4 4 4 4 5 6 4 3 3 3 4 5 4 3 3 4 5 6 6 7 6 6 5 6 5 4 5 8 18 21 19 22 21 14
11 10 10 8 8 7 6 4 3 5 4 4 3 5 5 5 6 5 3 4 5 3 2 4 5 4 5 5 6 6 3 3 1 2 3 2 5 14 16 18 22 17 14
12 11 9 9 9 7 6 3 2 1 1 4 5 5 9 7 7 5 5 5 3 1 1 3 3 4 4 4 4 3 3 2 3 5 4 3 5 4 8 14 11 8 8
14 12 10 8 8 7 6 3 1 2 3 3 3 4 7 7 6 4 4 3 3 2 2 3 2 2 4 4 5 4 4 3 4 4 4 6 7 5 4 8 4 1 3
13 12 9 6 7 6 3 1 1 1 2 3 3 4 7 4 4 2 1 3 4 2 1 1 3 3 4 4 4 2 3 3 2 3 5 4 3 3 4 6 6 7 15
11 11 10 8 7 5 2 2 1 2 1 2 3 5 6 4 4 4 2 2 3 4 3 4 3 3 3 2 3 2 1 4 3 3 3 3 5 5 6 7 6 5 6
16 13 9 9 8 6 3 2 2 2 1 2 3 4 4 5 4 4 4 4 4 2 4 3 3 2 3 1 1 2 4 3 4 5 4 4 5 5 7 7 6 7 7
14 14 13 11 10 7 6 3 1 1 2 3 2 4 5 5 5 6 4 3 3 2 3 3 2 3 2 2 1 1 1 2 1 3 6 4 4 6 5 5 6 6 6
16 14 13 12 11 7 8 5 5 4 3 2 2 3 3 4 5 4 3 4 3 2 3 3 2 3 2 1 1 1 3 1 1 3 4 4 5 4 5 4 4 3 5
14 15 13 13 11 8 8 7 6 4 3 2 2 6 4 4 4 5 6 5 3 2 3 2 3 2 1 0 0 1 1 3 3 3 1 1 5 4 2 3 3 2 4
13 13 13 13 13 8 9 8 9 8 5 3 2 3 3 2 2 3 5 1 2 2 1 1 2 3 3 4 3 3 2 2 0 2 3 2 3 3 3 3 4 3 2
Wind_Direction
172 136 133 130 130 128 121 107 96 97 100 103 96 94 94 96 97 98 104 108 115 117 119 118 122 129 112 107 115 118 130 144 157 159 152 157 168 166 163 157 147 145 149
134 129 122 131 130 128 120 116 112 102 103 102 101 99 96 99 109 103 97 97 100 103 105 102 108 105 95 96 112 122 133 160 173 170 175 177 177 177 174 170 167 169 159
123 130 126 132 133 130 125 120 115 107 105 106 102 103 103 103 97 94 92 85 79 75 71 61 30 358 4 10 7 73 150 195 209 197 192 186 218 197 199 193 175 176 172
131 120 117 121 122 123 128 122 118 121 121 103 99 95 89 92 87 85 81 79 76 65 46 16 357 338 329 315 302 291 274 234 218 214 216 209 215 214 220 217 188 183 181
115 119 126 126 128 129 123 126 129 121 107 103 102 109 103 91 85 74 68 50 32 17 7 353 337 317 298 288 276 272 257 250 240 233 207 210 216 228 218 198 194 193 192
128 122 139 140 132 128 130 126 122 119 116 116 107 96 89 80 63 49 40 27 6 336 360 13 30 347 6 328 312 272 241 245 242 233 232 217 224 234 212 213 205 203 195
134 136 130 137 135 132 133 127 134 128 124 119 110 96 70 71 78 63 37 307 226 190 115 71 60 16 346 344 316 287 267 246 200 223 239 248 241 218 212 212 212 209 203
134 130 139 146 142 139 136 143 137 135 128 127 100 113 116 85 46 42 223 239 246 242 62 112 165 32 16 311 264 245 246 254 211 191 226 249 268 224 208 210 209 211 205
124 118 118 131 148 144 147 155 143 143 144 103 106 113 135 131 83 131 240 206 224 235 53 149 126 78 8 317 258 235 258 265 179 249 236 232 258 252 221 216 210 209 207
125 127 135 142 141 142 157 163 157 164 140 127 134 165 164 108 98 76 338 212 231 266 329 290 311 296 323 268 266 290 284 327 228 223 220 232 249 275 249 229 218 218 212
134 139 142 156 160 155 171 182 166 173 133 143 157 204 154 157 161 142 320 231 274 307 320 284 306 294 309 317 305 300 316 200 209 261 229 251 250 274 256 247 237 224 217
159 172 169 175 187 172 191 189 196 197 120 124 205 237 206 211 173 134 74 6 326 323 324 305 339 357 10 335 319 322 321 300 280 284 288 304 292 291 260 243 238 234 226
172 173 185 179 195 191 197 174 203 203 129 154 226 251 304 343 7 8 49 360 324 323 323 330 327 328 353 303 316 311 307 306 287 270 296 307 293 289 280 261 257 255 239
173 190 187 188 177 198 197 187 186 214 162 181 228 251 243 264 308 277 309 36 302 305 296 323 337 325 316 297 278 295 297 291 273 278 297 257 269 324 325 301 268 259 242
178 189 196 178 180 193 202 190 209 220 204 182 192 232 249 231 242 280 236 151 231 252 268 291 302 314 309 304 300 281 278 284 288 287 270 273 237 191 243 251 273 276 252
182 188 188 179 181 194 204 207 214 219 222 187 202 215 222 250 259 247 270 276 260 238 267 276 279 300 296 296 289 280 295 288 296 272 282 287 251 211 226 239 257 259 262
189 177 183 177 179 190 203 208 189 207 204 215 197 199 228 230 240 217 238 259 269 272 291 289 281 276 276 315 306 299 252 237 274 47 23 25 284 218 224 250 254 285 270
169 173 176 173 175 173 184 177 126 157 234 208 212 186 203 218 225 216 240 248 282 214 209 262 294 296 303 288 267 304 347 125 45 31 28 352 12 12 2 313 312 279 261
172 169 178 168 171 181 174 149 171 290 274 222 235 211 236 193 219 226 235 261 163 117 39 360 325 265 281 306 322 9 11 56 36 15 341 20 22 28 315 327 4 49 281
171 176 172 167 167 174 158 106 117 261 317 296 274 259 234 243 249 190 244 225 172 154 263 321 276 292 273 292 303 49 54 52 49 46 16 30 35 15 25 28 28 38 63
169 170 171 165 183 154 156 149 157 247 264 282 276 257 223 229 271 181 183 171 214 213 224 216 241 250 291 296 312 11 54 39 83 84 103 62 29 37 50 39 33 22 41
175 178 176 181 171 181 155 158 148 167 268 225 262 298 240 237 238 210 193 202 201 233 253 263 265 308 273 293 350 45 360 353 7 28 24 38 48 65 59 50 43 42 36
177 179 183 186 183 178 171 123 90 32 360 339 307 264 234 214 237 233 219 230 234 239 261 265 280 238 279 315 21 128 168 288 36 48 22 39 50 78 76 60 40 37 40
188 182 181 183 184 189 168 153 159 175 184 235 260 266 304 283 288 292 287 244 235 227 244 261 259 243 210 330 26 346 54 356 312 108 11 13 30 59 91 76 72 62 46
177 182 184 180 181 185 176 174 169 192 197 250 323 327 312 306 283 292 284 263 236 218 245 269 300 331 360 154 346 186 92 62 43 105 135 8 26 13 36 100 101 74 50
184 177 179 180 186 183 181 178 175 187 197 197 251 289 0 330 334 333 330 295 193 227 37 341 334 64 85 93 62 28 83 107 297 101 104 84 119 335 1 25 49 38 8